Tracking 22879 objects as of 22-Apr-2021
HD Live streaming from Space Station
objects crossing your sky now

OBJECT P

Track OBJECT P now!
10-day predictions


NORAD ID: 43771
Int'l Code: 2018-099P
Perigee: 579.4 km
Apogee: 597.6 km
Inclination: 97.7 °
Period: 96.3 minutes
Semi major axis: 6959 km
RCS: Unknown
Launch date: December 3, 2018
Source: United States (US)
Launch site: AIR FORCE WESTERN TEST RANGE (AFWTR)
aabbcc
Your satellite tracking list
Your tracking list is empty




NASA's NSSDC Master Catalog

Two Line Element Set (TLE):
1 43771U 18099P   21112.15547545  .00000829  00000-0  80291-4 0  9995
2 43771  97.6690 183.6390 0013097 242.6251 117.3638 14.95329556130038
Source of the keplerian elements: AFSPC